Regional Weather Roundup
Issued by NWS Green Bay, WI

Home | Current Version | Previous Version | Graphics & Text | Print | Product List | Glossary Off
Versions: 1 2 3 4 5 6 7 8 9 10 11 12 13 14 15 16 17 18 19 20 21 22 23 24 25 26 27 28 29 30 31 32 33 34 35 36 37 38 39 40 41 42 43 44 45 46 47 48 49 50

000
ASUS43 KGRB 230210
RWRGRB

NORTH-CENTRAL AND NORTHEAST WISCONSIN REGIONAL WEATHER ROUNDUP
NATIONAL WEATHER SERVICE GREEN BAY WI
900 PM CDT MON SEP 22 2014

WIZ005-009-010>012-018-019-230300-
NORTH CENTRAL WISCONSIN

CITY           SKY/WX    TMP DP  RH WIND       PRES   REMARKS
IRONWOOD       CLEAR     57  52  82 SW7       30.12R
MANITOWISH WTR CLEAR     49  49 100 SW3       30.16S
ARBOR VITAE    CLEAR     52  49  91 CALM      30.17R
EAGLE RIVER    FOG       46  46 100 CALM      30.16R VSB 3/4
LAND O LAKES   CLEAR     46  45  97 CALM      30.17R
RHINELANDER    CLEAR     51  48  89 W6        30.19R
PHILLIPS       CLEAR     52  50  94 CALM      30.17R
ANTIGO         CLEAR     52  48  87 W6        30.19R
TOMAHAWK       CLEAR     53  49  84 CALM      30.19R
MERRILL        CLEAR     52  50  92 CALM      30.19R
$$

WIZ013-073-230300-
NORTHEAST WISCONSIN

CITY           SKY/WX    TMP DP  RH WIND       PRES   REMARKS
IRON MOUNTAIN  CLEAR     51  47  86 CALM      30.13R
MARINETTE      CLEAR     55  48  76 W3        30.15R
OCONTO         CLEAR     50  50 100 CALM      30.17R
$$

WIZ017-030-035>037-045-230300-
CENTRAL WISCONSIN

CITY           SKY/WX    TMP DP  RH WIND       PRES   REMARKS
MEDFORD        CLEAR     50  48  94 SW5       30.19S
WAUSAU         CLEAR     55  50  83 CALM      30.17S
MOSINEE        CLEAR     52  50  93 SW3       30.20S
MARSHFIELD     CLEAR     54  49  83 SW3       30.20R
WISC RAPIDS    CLEAR     51  50  96 CALM      30.22R
STEVENS POINT  CLEAR     51  48  90 CALM      30.21R
WAUPACA        CLEAR     55  52  88 CALM      30.20R
SHAWANO        CLEAR     58  50  75 CALM      30.18R
CLINTONVILLE   CLEAR     52  46  82 CALM      30.19R
$$

WIZ038-039-048-051-230300-
FOX VALLEY

CITY           SKY/WX    TMP DP  RH WIND       PRES   REMARKS
NWS GREEN BAY  CLEAR     55  50  83 SW3       30.18R
APPLETON       CLEAR     59  48  67 SW8       30.19R
OSHKOSH        CLEAR     56  49  77 SW3       30.20R
FOND DU LAC    CLEAR     54  49  83 SW6       30.21R
$$

WIZ022-050-052-230300-
EAST CENTRAL WISCONSIN

CITY           SKY/WX    TMP DP  RH WIND       PRES   REMARKS
STURGEON BAY   CLEAR     57  48  72 SW7       30.18R
MANITOWOC      CLEAR     52  50  93 CALM      30.19S
SHEBOYGAN      CLEAR     53  48  83 CALM      30.20S
$$

LMZ563-521-522-541>543-230300-
LAKESHORE

STATION/POSITION TIME  TEMP    WIND        PRES    VSBY  WAVE
                       AIR SEA DIR/SP/G                  HT/PER
                 (UTC) (F)     (DEG/KT/KT) (MB)    (MI)  (FT/S)
SHEBOYGAN LKSHOR 0200   56 52  200/  4/  5 1023.3R
KEWAUNEE LKSHORE 0200   56     170/  3/  4 1021.0R
NORTHPORT PIER   0200   56     190/  2/  5 1020.7R
N MID LAKE BUOY  0200   58 57  220/ 16/ 17 1020.6R         3/ 4
S GREEN BAY BUOY 0100   61     VRB  8/ 10  1022.1R
CHAMBERS ISLAND  0200   60     190/  5/ 10 1021.0R
MENOMINEE LKSHOR 0200   59     220/  7/  8 1021.5R
$$


USA.gov is the U.S. government's official web portal to all federal, state and local government web resources and services.